contact:dominique.lefevre@mio.osupytheas.fr, maurice.libes@osupytheas.fr, didier.mallarino@osupytheas.fr
Project:EMSO http://www.emso-fr.org/EMSO-France
Depth: 2436.0 m
Title:EMSO Ligure Ouest : Data MII capteur MICROCAT
DateTime_Computer,Latitude,Longitude,Temperature,Conductivity,Pressure,DateTime_Instrument
DateTime_Computer,Latitude,Longitude,degC,S m-1,dbar,DateTime_Instrument
2020-06-21T00:00:47Z,42.805,6.029,13.2972,4.59974,2470.077,2020-6-21T02:01:32Z
2020-06-21T00:03:50Z,42.805,6.029,13.2973,4.59972,2470.063,2020-6-21T02:04:35Z
2020-06-21T00:06:53Z,42.805,6.029,13.2967,4.59973,2470.063,2020-6-21T02:07:38Z
2020-06-21T00:09:56Z,42.805,6.029,13.2973,4.59972,2470.077,2020-6-21T02:10:41Z
2020-06-21T00:13:00Z,42.805,6.029,13.2971,4.59972,2470.087,2020-6-21T02:13:44Z
2020-06-21T00:16:03Z,42.805,6.029,13.2970,4.59975,2470.063,2020-6-21T02:16:48Z
2020-06-21T00:19:06Z,42.805,6.029,13.2970,4.59972,2470.053,2020-6-21T02:19:51Z
2020-06-21T00:22:09Z,42.805,6.029,13.2969,4.59973,2470.053,2020-6-21T02:22:54Z
2020-06-21T00:25:13Z,42.805,6.029,13.2969,4.59972,2470.053,2020-6-21T02:25:58Z
2020-06-21T00:28:16Z,42.805,6.029,13.2971,4.59973,2470.04,2020-6-21T02:29:01Z
2020-06-21T00:31:19Z,42.805,6.029,13.2974,4.59972,2470.063,2020-6-21T02:32:04Z
2020-06-21T00:34:22Z,42.805,6.029,13.2972,4.59972,2470.053,2020-6-21T02:35:07Z
2020-06-21T00:37:26Z,42.805,6.029,13.2970,4.59974,2470.063,2020-6-21T02:38:10Z
2020-06-21T00:40:29Z,42.805,6.029,13.2971,4.59973,2470.053,2020-6-21T02:41:14Z
2020-06-21T00:43:32Z,42.805,6.029,13.2974,4.59973,2470.063,2020-6-21T02:44:17Z
2020-06-21T00:46:35Z,42.805,6.029,13.2974,4.59973,2470.063,2020-6-21T02:47:20Z
2020-06-21T00:49:39Z,42.805,6.029,13.2973,4.59973,2470.063,2020-6-21T02:50:24Z
2020-06-21T00:52:42Z,42.805,6.029,13.2971,4.59973,2470.063,2020-6-21T02:53:27Z
2020-06-21T00:55:45Z,42.805,6.029,13.2973,4.59973,2470.04,2020-6-21T02:56:30Z
2020-06-21T00:58:49Z,42.805,6.029,13.2970,4.59973,2470.03,2020-6-21T02:59:34Z
2020-06-21T01:01:52Z,42.805,6.029,13.2971,4.59973,2470.063,2020-6-21T03:02:37Z
2020-06-21T01:04:55Z,42.805,6.029,13.2972,4.59973,2470.063,2020-6-21T03:05:40Z
2020-06-21T01:07:58Z,42.805,6.029,13.2971,4.59973,2470.053,2020-6-21T03:08:43Z
2020-06-21T01:11:02Z,42.805,6.029,13.2970,4.59972,2470.04,2020-6-21T03:11:46Z
2020-06-21T01:14:05Z,42.805,6.029,13.2971,4.59973,2470.063,2020-6-21T03:14:50Z
2020-06-21T01:17:08Z,42.805,6.029,13.2969,4.59973,2470.063,2020-6-21T03:17:53Z
2020-06-21T01:20:11Z,42.805,6.029,13.2968,4.59972,2470.077,2020-6-21T03:20:56Z
2020-06-21T01:23:14Z,42.805,6.029,13.2973,4.59972,2470.007,2020-6-21T03:23:59Z
2020-06-21T01:26:18Z,42.805,6.029,13.2971,4.59972,2470.03,2020-6-21T03:27:03Z
2020-06-21T01:29:21Z,42.805,6.029,13.2972,4.59973,2470.04,2020-6-21T03:30:06Z
2020-06-21T01:32:24Z,42.805,6.029,13.2974,4.59973,2470.017,2020-6-21T03:33:09Z
2020-06-21T01:35:28Z,42.805,6.029,13.2972,4.59973,2470.017,2020-6-21T03:36:12Z
2020-06-21T01:38:31Z,42.805,6.029,13.2968,4.59973,2470.04,2020-6-21T03:39:16Z
2020-06-21T01:41:34Z,42.805,6.029,13.2975,4.59973,2470.04,2020-6-21T03:42:19Z
2020-06-21T01:44:37Z,42.805,6.029,13.2973,4.59973,2470.017,2020-6-21T03:45:22Z
2020-06-21T01:47:40Z,42.805,6.029,13.2968,4.59973,2470.017,2020-6-21T03:48:25Z
2020-06-21T01:50:44Z,42.805,6.029,13.2968,4.59972,2470.053,2020-6-21T03:51:29Z
2020-06-21T01:53:47Z,42.805,6.029,13.2971,4.59972,2470.053,2020-6-21T03:54:32Z
2020-06-21T01:56:50Z,42.805,6.029,13.2970,4.59973,2470.053,2020-6-21T03:57:35Z
2020-06-21T01:59:53Z,42.805,6.029,13.2973,4.59973,2469.993,2020-6-21T04:00:38Z
2020-06-21T02:02:57Z,42.805,6.029,13.2969,4.59972,2470.017,2020-6-21T04:03:41Z
2020-06-21T02:06:00Z,42.805,6.029,13.2971,4.59972,2470.04,2020-6-21T04:06:45Z
2020-06-21T02:09:03Z,42.805,6.029,13.2967,4.59973,2470.053,2020-6-21T04:09:48Z
2020-06-21T02:12:07Z,42.805,6.029,13.2973,4.59972,2469.993,2020-6-21T04:12:51Z
2020-06-21T02:15:10Z,42.805,6.029,13.2971,4.59972,2470.04,2020-6-21T04:15:55Z
2020-06-21T02:18:13Z,42.805,6.029,13.2974,4.59973,2470.04,2020-6-21T04:18:58Z
2020-06-21T02:21:16Z,42.805,6.029,13.2971,4.59973,2470.053,2020-6-21T04:22:01Z
2020-06-21T02:24:20Z,42.805,6.029,13.2972,4.59972,2470.017,2020-6-21T04:25:04Z
2020-06-21T02:27:23Z,42.805,6.029,13.2973,4.59973,2470.063,2020-6-21T04:28:08Z
2020-06-21T02:30:26Z,42.805,6.029,13.2971,4.59972,2470.04,2020-6-21T04:31:11Z
2020-06-21T02:33:29Z,42.805,6.029,13.2971,4.59971,2470.017,2020-6-21T04:34:14Z
2020-06-21T02:36:32Z,42.805,6.029,13.2971,4.59973,2470.04,2020-6-21T04:37:17Z
2020-06-21T02:39:36Z,42.805,6.029,13.2975,4.59971,2470.04,2020-6-21T04:40:20Z
2020-06-21T02:42:39Z,42.805,6.029,13.2971,4.59973,2470.053,2020-6-21T04:43:24Z
2020-06-21T02:45:42Z,42.805,6.029,13.2971,4.59973,2470.017,2020-6-21T04:46:27Z
2020-06-21T02:48:46Z,42.805,6.029,13.2970,4.59975,2470.063,2020-6-21T04:49:31Z
2020-06-21T02:51:49Z,42.805,6.029,13.2970,4.59972,2470.063,2020-6-21T04:52:34Z
2020-06-21T02:54:52Z,42.805,6.029,13.2971,4.59972,2470.04,2020-6-21T04:55:37Z
2020-06-21T02:57:55Z,42.805,6.029,13.2976,4.59972,2470.077,2020-6-21T04:58:40Z
2020-06-21T03:00:59Z,42.805,6.029,13.2970,4.59971,2470.04,2020-6-21T05:01:43Z
2020-06-21T03:04:02Z,42.805,6.029,13.2971,4.59973,2470.04,2020-6-21T05:04:47Z
2020-06-21T03:07:05Z,42.805,6.029,13.2970,4.59972,2470.017,2020-6-21T05:07:50Z
2020-06-21T03:10:08Z,42.805,6.029,13.2974,4.59972,2470.017,2020-6-21T05:10:53Z
2020-06-21T03:13:12Z,42.805,6.029,13.2972,4.59973,2470.04,2020-6-21T05:13:56Z
2020-06-21T03:16:15Z,42.805,6.029,13.2970,4.59972,2470.04,2020-6-21T05:17:00Z
2020-06-21T03:19:18Z,42.805,6.029,13.2973,4.59972,2470.04,2020-6-21T05:20:03Z
2020-06-21T03:22:21Z,42.805,6.029,13.2969,4.59972,2470.087,2020-6-21T05:23:06Z
2020-06-21T03:25:25Z,42.805,6.029,13.2971,4.59973,2470.063,2020-6-21T05:26:09Z
2020-06-21T03:28:28Z,42.805,6.029,13.2968,4.59973,2470.04,2020-6-21T05:29:13Z
2020-06-21T03:31:31Z,42.805,6.029,13.2973,4.59973,2470.063,2020-6-21T05:32:16Z
2020-06-21T03:34:34Z,42.805,6.029,13.2971,4.59973,2470.087,2020-6-21T05:35:19Z
2020-06-21T03:37:38Z,42.805,6.029,13.2971,4.59973,2470.04,2020-6-21T05:38:22Z
2020-06-21T03:40:41Z,42.805,6.029,13.2972,4.59972,2470.063,2020-6-21T05:41:26Z
2020-06-21T03:43:44Z,42.805,6.029,13.2972,4.59972,2470.04,2020-6-21T05:44:29Z
2020-06-21T03:46:47Z,42.805,6.029,13.2968,4.59972,2470.087,2020-6-21T05:47:32Z
2020-06-21T03:49:50Z,42.805,6.029,13.2974,4.59973,2470.053,2020-6-21T05:50:35Z
2020-06-21T03:52:54Z,42.805,6.029,13.2971,4.59972,2470.077,2020-6-21T05:53:38Z
2020-06-21T03:55:57Z,42.805,6.029,13.2973,4.59973,2470.073,2020-6-21T05:56:42Z
2020-06-21T03:59:00Z,42.805,6.029,13.2971,4.59974,2470.087,2020-6-21T05:59:45Z
2020-06-21T04:02:04Z,42.805,6.029,13.2972,4.59973,2470.063,2020-6-21T06:02:49Z
2020-06-21T04:05:07Z,42.805,6.029,13.2974,4.59973,2470.087,2020-6-21T06:05:52Z
2020-06-21T04:08:10Z,42.805,6.029,13.2971,4.59973,2470.077,2020-6-21T06:08:55Z
2020-06-21T04:11:13Z,42.805,6.029,13.2974,4.59973,2470.077,2020-6-21T06:11:58Z
2020-06-21T04:14:16Z,42.805,6.029,13.2972,4.59973,2470.087,2020-6-21T06:15:01Z
2020-06-21T04:17:20Z,42.805,6.029,13.2969,4.59973,2470.077,2020-6-21T06:18:05Z
2020-06-21T04:20:23Z,42.805,6.029,13.2975,4.59973,2470.1,2020-6-21T06:21:08Z
2020-06-21T04:23:26Z,42.805,6.029,13.2970,4.59972,2470.11,2020-6-21T06:24:11Z
2020-06-21T04:26:30Z,42.805,6.029,13.2971,4.59973,2470.11,2020-6-21T06:27:15Z
2020-06-21T04:29:33Z,42.805,6.029,13.2971,4.59973,2470.11,2020-6-21T06:30:18Z
2020-06-21T04:32:36Z,42.805,6.029,13.2971,4.59973,2470.087,2020-6-21T06:33:21Z
2020-06-21T04:35:39Z,42.805,6.029,13.2970,4.59973,2470.063,2020-6-21T06:36:24Z
2020-06-21T04:38:43Z,42.805,6.029,13.2971,4.59973,2470.147,2020-6-21T06:39:27Z
2020-06-21T04:41:46Z,42.805,6.029,13.2970,4.59973,2470.124,2020-6-21T06:42:31Z
2020-06-21T04:44:49Z,42.805,6.029,13.2972,4.59972,2470.11,2020-6-21T06:45:34Z
2020-06-21T04:47:52Z,42.805,6.029,13.2969,4.59973,2470.063,2020-6-21T06:48:37Z
2020-06-21T04:50:56Z,42.805,6.029,13.2974,4.59972,2470.11,2020-6-21T06:51:40Z
2020-06-21T04:53:59Z,42.805,6.029,13.2971,4.59973,2470.147,2020-6-21T06:54:44Z
2020-06-21T04:57:02Z,42.805,6.029,13.2970,4.59973,2470.124,2020-6-21T06:57:47Z
2020-06-21T05:00:05Z,42.805,6.029,13.2970,4.59973,2470.087,2020-6-21T07:00:50Z
2020-06-21T05:03:09Z,42.805,6.029,13.2969,4.59974,2470.147,2020-6-21T07:03:53Z
2020-06-21T05:06:12Z,42.805,6.029,13.2971,4.59973,2470.11,2020-6-21T07:06:57Z
2020-06-21T05:09:15Z,42.805,6.029,13.2974,4.59973,2470.11,2020-6-21T07:10:00Z
2020-06-21T05:12:18Z,42.805,6.029,13.2974,4.59973,2470.147,2020-6-21T07:13:03Z
2020-06-21T05:15:22Z,42.805,6.029,13.2974,4.59972,2470.11,2020-6-21T07:16:06Z
2020-06-21T05:18:25Z,42.805,6.029,13.2971,4.59973,2470.119,2020-6-21T07:19:10Z
2020-06-21T05:21:28Z,42.805,6.029,13.2976,4.59973,2470.133,2020-6-21T07:22:13Z
2020-06-21T05:24:31Z,42.805,6.029,13.2974,4.59972,2470.171,2020-6-21T07:25:16Z
2020-06-21T05:27:35Z,42.805,6.029,13.2973,4.59972,2470.11,2020-6-21T07:28:20Z
2020-06-21T05:30:38Z,42.805,6.029,13.2971,4.59973,2470.124,2020-6-21T07:31:23Z
2020-06-21T05:33:41Z,42.805,6.029,13.2971,4.59972,2470.147,2020-6-21T07:34:26Z
2020-06-21T05:36:44Z,42.805,6.029,13.2974,4.59973,2470.124,2020-6-21T07:37:29Z
2020-06-21T05:39:48Z,42.805,6.029,13.2971,4.59973,2470.171,2020-6-21T07:40:33Z
2020-06-21T05:42:51Z,42.805,6.029,13.2967,4.59973,2470.124,2020-6-21T07:43:36Z
2020-06-21T05:45:54Z,42.805,6.029,13.2972,4.59973,2470.133,2020-6-21T07:46:39Z
2020-06-21T05:48:57Z,42.805,6.029,13.2971,4.59973,2470.147,2020-6-21T07:49:42Z
2020-06-21T05:52:01Z,42.805,6.029,13.2970,4.59972,2470.147,2020-6-21T07:52:46Z
2020-06-21T05:55:04Z,42.805,6.029,13.2971,4.59973,2470.124,2020-6-21T07:55:49Z
2020-06-21T05:58:07Z,42.805,6.029,13.2971,4.59973,2470.171,2020-6-21T07:58:52Z
2020-06-21T06:01:10Z,42.805,6.029,13.2973,4.59973,2470.133,2020-6-21T08:01:55Z
2020-06-21T06:04:14Z,42.805,6.029,13.2974,4.59975,2470.11,2020-6-21T08:04:59Z
2020-06-21T06:07:17Z,42.805,6.029,13.2973,4.59973,2470.11,2020-6-21T08:08:02Z
2020-06-21T06:10:20Z,42.805,6.029,13.2974,4.59973,2470.156,2020-6-21T08:11:05Z
2020-06-21T06:13:23Z,42.805,6.029,13.2969,4.59972,2470.18,2020-6-21T08:14:08Z
2020-06-21T06:16:27Z,42.805,6.029,13.2971,4.59973,2470.156,2020-6-21T08:17:11Z
2020-06-21T06:19:30Z,42.805,6.029,13.2969,4.59973,2470.156,2020-6-21T08:20:15Z
2020-06-21T06:22:33Z,42.805,6.029,13.2968,4.59972,2470.156,2020-6-21T08:23:18Z
2020-06-21T06:25:37Z,42.805,6.029,13.2972,4.59973,2470.194,2020-6-21T08:26:22Z
2020-06-21T06:28:40Z,42.805,6.029,13.2971,4.59974,2470.171,2020-6-21T08:29:25Z
2020-06-21T06:31:43Z,42.805,6.029,13.2976,4.59974,2470.11,2020-6-21T08:32:28Z
2020-06-21T06:34:46Z,42.805,6.029,13.2971,4.59973,2470.156,2020-6-21T08:35:31Z
2020-06-21T06:37:50Z,42.805,6.029,13.2971,4.59973,2470.156,2020-6-21T08:38:35Z
2020-06-21T06:40:53Z,42.805,6.029,13.2971,4.59973,2470.18,2020-6-21T08:41:38Z
2020-06-21T06:43:56Z,42.805,6.029,13.2971,4.59973,2470.147,2020-6-21T08:44:41Z
2020-06-21T06:47:00Z,42.805,6.029,13.2971,4.59975,2470.147,2020-6-21T08:47:44Z
2020-06-21T06:50:03Z,42.805,6.029,13.2968,4.59972,2470.171,2020-6-21T08:50:48Z
2020-06-21T06:53:06Z,42.805,6.029,13.2973,4.59974,2470.156,2020-6-21T08:53:51Z
2020-06-21T06:56:09Z,42.805,6.029,13.2968,4.59973,2470.171,2020-6-21T08:56:54Z
2020-06-21T06:59:13Z,42.805,6.029,13.2973,4.59972,2470.133,2020-6-21T08:59:58Z
2020-06-21T07:02:16Z,42.805,6.029,13.2969,4.59973,2470.133,2020-6-21T09:03:01Z
2020-06-21T07:05:19Z,42.805,6.029,13.2971,4.59972,2470.156,2020-6-21T09:06:04Z
2020-06-21T07:08:22Z,42.805,6.029,13.2971,4.59973,2470.147,2020-6-21T09:09:07Z
2020-06-21T07:11:26Z,42.805,6.029,13.2972,4.59973,2470.156,2020-6-21T09:12:10Z
2020-06-21T07:14:29Z,42.805,6.029,13.2971,4.59973,2470.194,2020-6-21T09:15:14Z
2020-06-21T07:17:32Z,42.805,6.029,13.2969,4.59972,2470.133,2020-6-21T09:18:17Z
2020-06-21T07:20:35Z,42.805,6.029,13.2975,4.59973,2470.11,2020-6-21T09:21:20Z
2020-06-21T07:23:38Z,42.805,6.029,13.2971,4.59973,2470.133,2020-6-21T09:24:23Z
2020-06-21T07:26:42Z,42.805,6.029,13.2972,4.59973,2470.124,2020-6-21T09:27:27Z
2020-06-21T07:29:45Z,42.805,6.029,13.2974,4.59974,2470.171,2020-6-21T09:30:30Z
2020-06-21T07:32:48Z,42.805,6.029,13.2971,4.59973,2470.133,2020-6-21T09:33:33Z
2020-06-21T07:35:51Z,42.805,6.029,13.2970,4.59975,2470.124,2020-6-21T09:36:36Z
2020-06-21T07:38:55Z,42.805,6.029,13.2968,4.59973,2470.11,2020-6-21T09:39:40Z
2020-06-21T07:41:58Z,42.805,6.029,13.2968,4.59975,2470.133,2020-6-21T09:42:43Z
2020-06-21T07:45:01Z,42.805,6.029,13.2970,4.59974,2470.124,2020-6-21T09:45:46Z
2020-06-21T07:48:04Z,42.805,6.029,13.2974,4.59975,2470.156,2020-6-21T09:48:49Z
2020-06-21T07:51:08Z,42.805,6.029,13.2970,4.59972,2470.156,2020-6-21T09:51:52Z
2020-06-21T07:54:11Z,42.805,6.029,13.2970,4.59976,2470.147,2020-6-21T09:54:56Z
2020-06-21T07:57:14Z,42.805,6.029,13.2968,4.59971,2470.133,2020-6-21T09:57:59Z
2020-06-21T08:00:18Z,42.805,6.029,13.2972,4.59973,2470.133,2020-6-21T10:01:02Z
2020-06-21T08:03:21Z,42.805,6.029,13.2970,4.59973,2470.194,2020-6-21T10:04:06Z
2020-06-21T08:06:24Z,42.805,6.029,13.2970,4.59972,2470.133,2020-6-21T10:07:09Z
2020-06-21T08:09:27Z,42.805,6.029,13.2971,4.59972,2470.11,2020-6-21T10:10:12Z
2020-06-21T08:12:31Z,42.805,6.029,13.2972,4.59973,2470.147,2020-6-21T10:13:15Z
2020-06-21T08:15:34Z,42.805,6.029,13.2971,4.59971,2470.11,2020-6-21T10:16:19Z
2020-06-21T08:18:37Z,42.805,6.029,13.2972,4.59974,2470.133,2020-6-21T10:19:22Z
2020-06-21T08:21:40Z,42.805,6.029,13.2968,4.59972,2470.133,2020-6-21T10:22:25Z
2020-06-21T08:24:44Z,42.805,6.029,13.2970,4.59973,2470.1,2020-6-21T10:25:28Z
2020-06-21T08:27:47Z,42.805,6.029,13.2974,4.59973,2470.124,2020-6-21T10:28:32Z
2020-06-21T08:30:50Z,42.805,6.029,13.2970,4.59972,2470.147,2020-6-21T10:31:35Z
2020-06-21T08:33:53Z,42.805,6.029,13.2969,4.59973,2470.087,2020-6-21T10:34:38Z
2020-06-21T08:36:57Z,42.805,6.029,13.2974,4.59972,2470.124,2020-6-21T10:37:42Z
2020-06-21T08:40:00Z,42.805,6.029,13.2971,4.59973,2470.124,2020-6-21T10:40:45Z
2020-06-21T08:43:03Z,42.805,6.029,13.2974,4.59972,2470.11,2020-6-21T10:43:48Z
2020-06-21T08:46:07Z,42.805,6.029,13.2972,4.59972,2470.077,2020-6-21T10:46:51Z
2020-06-21T08:49:10Z,42.805,6.029,13.2970,4.59972,2470.11,2020-6-21T10:49:55Z
2020-06-21T08:52:13Z,42.805,6.029,13.2971,4.59972,2470.11,2020-6-21T10:52:58Z
2020-06-21T08:55:16Z,42.805,6.029,13.2971,4.59973,2470.1,2020-6-21T10:56:01Z
2020-06-21T08:58:20Z,42.805,6.029,13.2972,4.59972,2470.1,2020-6-21T10:59:05Z
2020-06-21T09:01:23Z,42.805,6.029,13.2974,4.59972,2470.11,2020-6-21T11:02:08Z
2020-06-21T09:04:26Z,42.805,6.029,13.2967,4.59973,2470.11,2020-6-21T11:05:11Z
2020-06-21T09:07:30Z,42.805,6.029,13.2969,4.59972,2470.124,2020-6-21T11:08:14Z
2020-06-21T09:10:33Z,42.805,6.029,13.2970,4.59971,2470.087,2020-6-21T11:11:18Z
2020-06-21T09:13:36Z,42.805,6.029,13.2972,4.59972,2470.077,2020-6-21T11:14:21Z
2020-06-21T09:16:39Z,42.805,6.029,13.2971,4.59972,2470.087,2020-6-21T11:17:24Z
2020-06-21T09:19:43Z,42.805,6.029,13.2969,4.59971,2470.11,2020-6-21T11:20:27Z
2020-06-21T09:22:46Z,42.805,6.029,13.2971,4.59971,2470.1,2020-6-21T11:23:31Z
2020-06-21T09:25:49Z,42.805,6.029,13.2965,4.59973,2470.124,2020-6-21T11:26:34Z
2020-06-21T09:28:52Z,42.805,6.029,13.2971,4.59971,2470.077,2020-6-21T11:29:37Z
2020-06-21T09:31:56Z,42.805,6.029,13.2971,4.59971,2470.063,2020-6-21T11:32:41Z
2020-06-21T09:34:59Z,42.805,6.029,13.2971,4.59973,2470.124,2020-6-21T11:35:44Z
2020-06-21T09:38:02Z,42.805,6.029,13.2970,4.59971,2470.077,2020-6-21T11:38:47Z
2020-06-21T09:41:05Z,42.805,6.029,13.2974,4.59973,2470.11,2020-6-21T11:41:50Z
2020-06-21T09:44:09Z,42.805,6.029,13.2972,4.59972,2470.087,2020-6-21T11:44:54Z
2020-06-21T09:47:12Z,42.805,6.029,13.2971,4.59972,2470.11,2020-6-21T11:47:57Z
2020-06-21T09:50:15Z,42.805,6.029,13.2968,4.59972,2470.077,2020-6-21T11:51:00Z
2020-06-21T09:53:18Z,42.805,6.029,13.2969,4.59973,2470.1,2020-6-21T11:54:03Z
2020-06-21T09:56:22Z,42.805,6.029,13.2974,4.59971,2470.1,2020-6-21T11:57:07Z
2020-06-21T09:59:25Z,42.805,6.029,13.2969,4.59971,2470.053,2020-6-21T12:00:10Z
2020-06-21T10:02:28Z,42.805,6.029,13.2968,4.59972,2470.077,2020-6-21T12:03:13Z
2020-06-21T10:05:31Z,42.805,6.029,13.2967,4.59972,2470.063,2020-6-21T12:06:16Z
2020-06-21T10:08:35Z,42.805,6.029,13.2968,4.59973,2470.063,2020-6-21T12:09:19Z
2020-06-21T10:11:38Z,42.805,6.029,13.2969,4.59972,2470.04,2020-6-21T12:12:23Z
2020-06-21T10:14:41Z,42.805,6.029,13.2971,4.59971,2470.063,2020-6-21T12:15:26Z
2020-06-21T10:17:44Z,42.805,6.029,13.2971,4.59972,2470.053,2020-6-21T12:18:29Z
2020-06-21T10:20:48Z,42.805,6.029,13.2973,4.59971,2470.063,2020-6-21T12:21:32Z
2020-06-21T10:23:51Z,42.805,6.029,13.2970,4.59971,2470.04,2020-6-21T12:24:36Z
2020-06-21T10:26:54Z,42.805,6.029,13.2974,4.59971,2470.017,2020-6-21T12:27:39Z
2020-06-21T10:29:57Z,42.805,6.029,13.2971,4.59971,2470.017,2020-6-21T12:30:42Z
2020-06-21T10:33:01Z,42.805,6.029,13.2970,4.59970,2470.04,2020-6-21T12:33:46Z
2020-06-21T10:36:04Z,42.805,6.029,13.2970,4.59971,2470.017,2020-6-21T12:36:49Z
2020-06-21T10:39:07Z,42.805,6.029,13.2969,4.59971,2470.017,2020-6-21T12:39:52Z
2020-06-21T10:42:11Z,42.805,6.029,13.2971,4.59971,2469.993,2020-6-21T12:42:55Z
2020-06-21T10:45:14Z,42.805,6.029,13.2969,4.59973,2470.04,2020-6-21T12:45:59Z
2020-06-21T10:48:17Z,42.805,6.029,13.2969,4.59971,2470.04,2020-6-21T12:49:02Z
2020-06-21T10:51:20Z,42.805,6.029,13.2971,4.59971,2470.04,2020-6-21T12:52:05Z
2020-06-21T10:54:24Z,42.805,6.029,13.2971,4.59971,2470.04,2020-6-21T12:55:08Z
2020-06-21T10:57:27Z,42.805,6.029,13.2971,4.59970,2470.017,2020-6-21T12:58:12Z
2020-06-21T11:00:30Z,42.805,6.029,13.2971,4.59970,2470.017,2020-6-21T13:01:15Z
2020-06-21T11:03:33Z,42.805,6.029,13.2970,4.59971,2470.017,2020-6-21T13:04:18Z
2020-06-21T11:06:37Z,42.805,6.029,13.2971,4.59969,2470.04,2020-6-21T13:07:21Z
2020-06-21T11:09:40Z,42.805,6.029,13.2971,4.59970,2470.017,2020-6-21T13:10:25Z
2020-06-21T11:12:43Z,42.805,6.029,13.2966,4.59970,2470.017,2020-6-21T13:13:28Z
2020-06-21T11:15:46Z,42.805,6.029,13.2967,4.59970,2469.993,2020-6-21T13:16:31Z
2020-06-21T11:18:50Z,42.805,6.029,13.2968,4.59969,2469.993,2020-6-21T13:19:34Z
2020-06-21T11:21:53Z,42.805,6.029,13.2970,4.59969,2470.017,2020-6-21T13:22:38Z
2020-06-21T11:24:56Z,42.805,6.029,13.2969,4.59971,2469.993,2020-6-21T13:25:41Z
2020-06-21T11:27:59Z,42.805,6.029,13.2970,4.59969,2470.017,2020-6-21T13:28:44Z
2020-06-21T11:31:03Z,42.805,6.029,13.2973,4.59970,2469.993,2020-6-21T13:31:47Z
2020-06-21T11:34:06Z,42.805,6.029,13.2971,4.59971,2470.017,2020-6-21T13:34:51Z
2020-06-21T11:37:09Z,42.805,6.029,13.2971,4.59971,2470.007,2020-6-21T13:37:54Z
2020-06-21T11:40:12Z,42.805,6.029,13.2967,4.59971,2469.984,2020-6-21T13:40:57Z
2020-06-21T11:43:16Z,42.805,6.029,13.2973,4.59971,2469.993,2020-6-21T13:44:01Z
2020-06-21T11:46:19Z,42.805,6.029,13.2972,4.59971,2470.017,2020-6-21T13:47:04Z
2020-06-21T11:49:22Z,42.805,6.029,13.2966,4.59970,2469.993,2020-6-21T13:50:07Z
2020-06-21T11:52:25Z,42.805,6.029,13.2970,4.59970,2469.97,2020-6-21T13:53:10Z
2020-06-21T11:55:29Z,42.805,6.029,13.2970,4.59970,2470.017,2020-6-21T13:56:14Z
2020-06-21T11:58:32Z,42.805,6.029,13.2967,4.59969,2470.017,2020-6-21T13:59:17Z
2020-06-21T12:01:35Z,42.805,6.029,13.2968,4.59969,2470.007,2020-6-21T14:02:20Z
2020-06-21T12:04:38Z,42.805,6.029,13.2971,4.59971,2469.984,2020-6-21T14:05:23Z
2020-06-21T12:07:42Z,42.805,6.029,13.2971,4.59970,2469.993,2020-6-21T14:08:27Z
2020-06-21T12:10:45Z,42.805,6.029,13.2969,4.59971,2470.017,2020-6-21T14:11:30Z
2020-06-21T12:13:48Z,42.805,6.029,13.2964,4.59971,2469.993,2020-6-21T14:14:33Z
2020-06-21T12:16:51Z,42.805,6.029,13.2968,4.59971,2470.04,2020-6-21T14:17:36Z
2020-06-21T12:19:55Z,42.805,6.029,13.2971,4.59970,2469.97,2020-6-21T14:20:39Z
2020-06-21T12:22:58Z,42.805,6.029,13.2963,4.59970,2469.97,2020-6-21T14:23:43Z
2020-06-21T12:26:01Z,42.805,6.029,13.2967,4.59970,2469.984,2020-6-21T14:26:46Z
2020-06-21T12:29:05Z,42.805,6.029,13.2970,4.59971,2469.956,2020-6-21T14:29:49Z
2020-06-21T12:32:08Z,42.805,6.029,13.2968,4.59970,2469.97,2020-6-21T14:32:53Z
2020-06-21T12:35:11Z,42.805,6.029,13.2967,4.59970,2469.97,2020-6-21T14:35:56Z
2020-06-21T12:38:14Z,42.805,6.029,13.2971,4.59971,2469.984,2020-6-21T14:38:59Z
2020-06-21T12:41:17Z,42.805,6.029,13.2964,4.59970,2469.956,2020-6-21T14:42:02Z
2020-06-21T12:44:21Z,42.805,6.029,13.2970,4.59971,2469.984,2020-6-21T14:45:05Z
2020-06-21T12:47:24Z,42.805,6.029,13.2969,4.59969,2469.933,2020-6-21T14:48:09Z
2020-06-21T12:50:27Z,42.805,6.029,13.2968,4.59970,2469.96,2020-6-21T14:51:12Z
2020-06-21T12:53:30Z,42.805,6.029,13.2970,4.59969,2469.993,2020-6-21T14:54:15Z
2020-06-21T12:56:34Z,42.805,6.029,13.2968,4.59970,2469.947,2020-6-21T14:57:19Z
2020-06-21T12:59:37Z,42.805,6.029,13.2969,4.59971,2469.97,2020-6-21T15:00:22Z
2020-06-21T13:02:40Z,42.805,6.029,13.2968,4.59969,2469.947,2020-6-21T15:03:25Z
2020-06-21T13:05:43Z,42.805,6.029,13.2969,4.59969,2469.947,2020-6-21T15:06:28Z
2020-06-21T13:08:47Z,42.805,6.029,13.2967,4.59970,2469.96,2020-6-21T15:09:31Z
2020-06-21T13:11:50Z,42.805,6.029,13.2970,4.59968,2469.97,2020-6-21T15:12:35Z
2020-06-21T13:14:53Z,42.805,6.029,13.2968,4.59969,2470.007,2020-6-21T15:15:38Z
2020-06-21T13:17:56Z,42.805,6.029,13.2969,4.59970,2469.97,2020-6-21T15:18:41Z
2020-06-21T13:21:00Z,42.805,6.029,13.2971,4.59968,2470.007,2020-6-21T15:21:44Z
2020-06-21T13:24:03Z,42.805,6.029,13.2971,4.59971,2470.007,2020-6-21T15:24:48Z
2020-06-21T13:27:06Z,42.805,6.029,13.2972,4.59970,2469.947,2020-6-21T15:27:51Z
2020-06-21T13:30:09Z,42.805,6.029,13.2969,4.59969,2469.993,2020-6-21T15:30:54Z
2020-06-21T13:33:12Z,42.805,6.029,13.2969,4.59969,2469.96,2020-6-21T15:33:57Z
2020-06-21T13:36:16Z,42.805,6.029,13.2967,4.59968,2469.923,2020-6-21T15:37:01Z
2020-06-21T13:39:19Z,42.805,6.029,13.2968,4.59968,2469.984,2020-6-21T15:40:04Z
2020-06-21T13:42:22Z,42.805,6.029,13.2968,4.59970,2469.947,2020-6-21T15:43:07Z
2020-06-21T13:45:26Z,42.805,6.029,13.2968,4.59969,2469.97,2020-6-21T15:46:11Z
2020-06-21T13:48:29Z,42.805,6.029,13.2969,4.59970,2469.97,2020-6-21T15:49:14Z
2020-06-21T13:51:32Z,42.805,6.029,13.2971,4.59970,2469.97,2020-6-21T15:52:17Z
2020-06-21T13:54:35Z,42.805,6.029,13.2968,4.59970,2469.993,2020-6-21T15:55:20Z
2020-06-21T13:57:39Z,42.805,6.029,13.2967,4.59971,2469.984,2020-6-21T15:58:23Z
2020-06-21T14:00:42Z,42.805,6.029,13.2966,4.59968,2469.923,2020-6-21T16:01:27Z
2020-06-21T14:03:45Z,42.805,6.029,13.2967,4.59968,2469.984,2020-6-21T16:04:30Z
2020-06-21T14:06:48Z,42.805,6.029,13.2969,4.59969,2469.97,2020-6-21T16:07:33Z
2020-06-21T14:09:52Z,42.805,6.029,13.2968,4.59968,2469.984,2020-6-21T16:10:36Z
2020-06-21T14:12:55Z,42.805,6.029,13.2967,4.59969,2470.007,2020-6-21T16:13:40Z
2020-06-21T14:15:58Z,42.805,6.029,13.2969,4.59969,2469.947,2020-6-21T16:16:43Z
2020-06-21T14:19:01Z,42.805,6.029,13.2967,4.59969,2469.97,2020-6-21T16:19:46Z
2020-06-21T14:22:05Z,42.805,6.029,13.2971,4.59968,2469.937,2020-6-21T16:22:49Z
2020-06-21T14:25:08Z,42.805,6.029,13.2967,4.59970,2469.909,2020-6-21T16:25:53Z
2020-06-21T14:28:11Z,42.805,6.029,13.2970,4.59969,2469.984,2020-6-21T16:28:56Z
2020-06-21T14:31:14Z,42.805,6.029,13.2971,4.59968,2469.947,2020-6-21T16:31:59Z
2020-06-21T14:34:18Z,42.805,6.029,13.2967,4.59969,2469.97,2020-6-21T16:35:03Z
2020-06-21T14:37:21Z,42.805,6.029,13.2972,4.59970,2469.993,2020-6-21T16:38:06Z
2020-06-21T14:40:24Z,42.805,6.029,13.2968,4.59969,2469.97,2020-6-21T16:41:09Z
2020-06-21T14:43:27Z,42.805,6.029,13.2971,4.59970,2469.984,2020-6-21T16:44:12Z
2020-06-21T14:46:31Z,42.805,6.029,13.2970,4.59969,2469.984,2020-6-21T16:47:16Z
2020-06-21T14:49:34Z,42.805,6.029,13.2968,4.59971,2470.007,2020-6-21T16:50:19Z
2020-06-21T14:52:38Z,42.805,6.029,13.2968,4.59969,2469.97,2020-6-21T16:53:22Z
2020-06-21T14:55:41Z,42.805,6.029,13.2968,4.59969,2469.993,2020-6-21T16:56:26Z
2020-06-21T14:58:44Z,42.805,6.029,13.2971,4.59970,2469.97,2020-6-21T16:59:29Z
2020-06-21T15:01:47Z,42.805,6.029,13.2969,4.59970,2469.984,2020-6-21T17:02:32Z
2020-06-21T15:04:50Z,42.805,6.029,13.2968,4.59968,2470.007,2020-6-21T17:05:35Z
2020-06-21T15:07:54Z,42.805,6.029,13.2968,4.59968,2470.007,2020-6-21T17:08:38Z
2020-06-21T15:10:57Z,42.805,6.029,13.2966,4.59969,2470.03,2020-6-21T17:11:42Z
2020-06-21T15:14:00Z,42.805,6.029,13.2968,4.59971,2469.993,2020-6-21T17:14:45Z